When you browse on this site, cookies collect data to enhance your experience and personalize the content and advertising you see.
Visit our Privacy Policy to learn more. By continuing to use the site, you agree to this use of cookies and data.
  • în România
  • Lista ţărilor
  • Pe 7 zile
  • Temperatura apei
  • Hartă satelitară
  • Meteo pe hartă
  • Widget-uri
  • user-avatar
    Intrare

    Meteo pe oră la Ísafjörður

    Astăzi, 26 Martie, Marţi

    Timp Temperatura Precipitaţii Vânt Presiune Umiditate
    00:00 0°C° 0.2 mm 9 m/s 724 mmHg 98%
    01:00 0°C° 0.2 mm 9 m/s 725 mmHg 98%
    02:00 0°C° 0.6 mm 10 m/s 725 mmHg 97%
    03:00 -1°C° 0.6 mm 11 m/s 726 mmHg 96%
    04:00 -2°C° 0.6 mm 13 m/s 727 mmHg 94%
    05:00 -2°C° 0.2 mm 13 m/s 728 mmHg 90%
    06:00 -2°C° 0.2 mm 13 m/s 728 mmHg 86%
    07:00 -4°C° 0.2 mm 13 m/s 729 mmHg 81%
    08:00 -4°C° 0.1 mm 14 m/s 730 mmHg 80%
    09:00 -5°C° 0.1 mm 15 m/s 730 mmHg 79%
    10:00 -5°C° 0.1 mm 15 m/s 731 mmHg 78%
    11:00 -5°C° 0.1 mm 15 m/s 731 mmHg 77%
    12:00 -5°C° 0.1 mm 16 m/s 732 mmHg 76%
    13:00 -7°C° 0.1 mm 16 m/s 732 mmHg 74%
    14:00 -7°C° 0.1 mm 15 m/s 732 mmHg 75%
    15:00 -7°C° 0.1 mm 15 m/s 732 mmHg 75%
    16:00 -7°C° 0.1 mm 15 m/s 732 mmHg 75%
    17:00 -6°C° 0.1 mm 14 m/s 732 mmHg 77%
    18:00 -6°C° 0.1 mm 13 m/s 732 mmHg 79%
    19:00 -6°C° 0.1 mm 13 m/s 732 mmHg 81%
    20:00 -6°C° 0.1 mm 12 m/s 731 mmHg 82%
    21:00 -6°C° 0.1 mm 12 m/s 730 mmHg 83%
    22:00 -4°C° 0.1 mm 11 m/s 730 mmHg 84%
    23:00 -4°C° 0.2 mm 11 m/s 728 mmHg 86%

    Mâine, 27 Martie, Miercuri

    Timp Temperatura Precipitaţii Vânt Presiune Umiditate
    00:00 -4°C° 0.2 mm 10 m/s 726 mmHg 89%
    01:00 -4°C° 0.2 mm 9 m/s 725 mmHg 91%
    02:00 -3°C° 1.2 mm 11 m/s 724 mmHg 90%
    03:00 -4°C° 1.2 mm 13 m/s 722 mmHg 90%
    04:00 -3°C° 1.2 mm 15 m/s 721 mmHg 89%
    05:00 -4°C° 0.5 mm 14 m/s 722 mmHg 85%
    06:00 -6°C° 0.5 mm 14 m/s 722 mmHg 82%
    07:00 -7°C° 0.5 mm 13 m/s 722 mmHg 79%
    08:00 -8°C° 0.6 mm 15 m/s 722 mmHg 80%
    09:00 -9°C° 0.6 mm 16 m/s 722 mmHg 81%
    10:00 -9°C° 0.6 mm 17 m/s 722 mmHg 82%
    11:00 -11°C° 0.2 mm 18 m/s 722 mmHg 79%
    12:00 -11°C° 0.2 mm 18 m/s 721 mmHg 75%
    13:00 -11°C° 0.2 mm 19 m/s 721 mmHg 72%
    14:00 -11°C° 0.3 mm 19 m/s 721 mmHg 72%
    15:00 -11°C° 0.3 mm 19 m/s 721 mmHg 73%
    16:00 -11°C° 0.3 mm 19 m/s 720 mmHg 74%
    17:00 -11°C° 0.2 mm 19 m/s 720 mmHg 73%
    18:00 -12°C° 0.2 mm 19 m/s 720 mmHg 72%
    19:00 -12°C° 0.2 mm 19 m/s 720 mmHg 72%
    20:00 -12°C° 0.3 mm 18 m/s 721 mmHg 72%
    21:00 -12°C° 0.3 mm 18 m/s 721 mmHg 73%
    22:00 -12°C° 0.3 mm 18 m/s 721 mmHg 74%
    23:00 -12°C° 0.3 mm 18 m/s 722 mmHg 74%

    Poimâine, 28 Martie, Joi

    Timp Temperatura Precipitaţii Vânt Presiune Umiditate
    00:00 -12°C° 0.3 mm 18 m/s 722 mmHg 73%
    01:00 -12°C° 0.3 mm 18 m/s 722 mmHg 73%
    02:00 -12°C° 0.2 mm 17 m/s 722 mmHg 73%
    03:00 -12°C° 0.2 mm 17 m/s 722 mmHg 73%
    04:00 -12°C° 0.2 mm 16 m/s 722 mmHg 74%
    05:00 -12°C° 0.2 mm 15 m/s 722 mmHg 73%
    06:00 -10°C° 0.2 mm 14 m/s 722 mmHg 73%
    07:00 -10°C° 0.2 mm 14 m/s 722 mmHg 73%
    08:00 -10°C° 0.1 mm 13 m/s 722 mmHg 73%
    09:00 -10°C° 0.1 mm 12 m/s 722 mmHg 73%
    10:00 -8°C° 0.1 mm 12 m/s 722 mmHg 73%
    11:00 -8°C° 0.1 mm 11 m/s 722 mmHg 75%
    12:00 -8°C° 0.1 mm 10 m/s 721 mmHg 77%
    13:00 -8°C° 0.1 mm 9 m/s 721 mmHg 79%
    14:00 -7°C° 0.3 mm 8 m/s 721 mmHg 78%
    15:00 -8°C° 0.3 mm 8 m/s 721 mmHg 76%
    16:00 -8°C° 0.3 mm 7 m/s 721 mmHg 74%
    17:00 -8°C° 0.1 mm 6 m/s 721 mmHg 74%
    18:00 -7°C° 0.1 mm 5 m/s 721 mmHg 73%
    19:00 -8°C° 0.1 mm 5 m/s 721 mmHg 73%
    20:00 -8°C° 0.1 mm 4 m/s 722 mmHg 73%
    21:00 -7°C° 0.1 mm 3 m/s 722 mmHg 73%
    22:00 -6°C° 0.1 mm 2 m/s 722 mmHg 74%
    23:00 -7°C° 0 mm 2 m/s 723 mmHg 75%

    29 Martie, Vineri

    Timp Temperatura Precipitaţii Vânt Presiune Umiditate
    00:00 -6°C° 0 mm 1 m/s 723 mmHg 75%
    01:00 -7°C° 0 mm 1 m/s 724 mmHg 76%
    02:00 -9°C° 0.2 mm 3 m/s 724 mmHg 80%
    03:00 -10°C° 0.2 mm 5 m/s 725 mmHg 84%
    04:00 -11°C° 0.2 mm 7 m/s 726 mmHg 88%
    05:00 -11°C° 0.1 mm 7 m/s 727 mmHg 84%
    06:00 -11°C° 0.1 mm 7 m/s 728 mmHg 80%
    07:00 -11°C° 0.1 mm 7 m/s 729 mmHg 77%
    08:00 -11°C° 0.1 mm 7 m/s 730 mmHg 75%
    09:00 -11°C° 0.1 mm 8 m/s 732 mmHg 74%
    10:00 -10°C° 0.1 mm 8 m/s 733 mmHg 72%
    11:00 -11°C° 0.1 mm 9 m/s 734 mmHg 76%
    12:00 -11°C° 0.1 mm 9 m/s 735 mmHg 79%
    13:00 -11°C° 0.1 mm 9 m/s 736 mmHg 83%
    14:00 -11°C° 0 mm 8 m/s 737 mmHg 79%
    15:00 -11°C° 0 mm 7 m/s 738 mmHg 75%
    16:00 -11°C° 0 mm 6 m/s 739 mmHg 71%
    17:00 -10°C° 0 mm 4 m/s 740 mmHg 71%
    18:00 -10°C° 0 mm 3 m/s 740 mmHg 71%
    19:00 -10°C° 0 mm 2 m/s 741 mmHg 71%
    20:00 -10°C° 0 mm 2 m/s 742 mmHg 71%
    21:00 -12°C° 0 mm 3 m/s 742 mmHg 71%
    22:00 -12°C° 0 mm 4 m/s 743 mmHg 71%
    23:00 -12°C° 0 mm 5 m/s 743 mmHg 72%

    30 Martie, Sâmbătă

    Timp Temperatura Precipitaţii Vânt Presiune Umiditate
    00:00 -11°C° 0 mm 6 m/s 744 mmHg 74%
    01:00 -12°C° 0 mm 7 m/s 744 mmHg 75%
    02:00 -11°C° 0.1 mm 8 m/s 744 mmHg 77%
    03:00 -10°C° 0.1 mm 9 m/s 744 mmHg 78%
    04:00 -9°C° 0.1 mm 10 m/s 744 mmHg 80%
    05:00 -8°C° 0.4 mm 9 m/s 744 mmHg 82%
    06:00 -8°C° 0.4 mm 9 m/s 744 mmHg 85%
    07:00 -6°C° 0.4 mm 9 m/s 745 mmHg 87%
    08:00 -6°C° 0.2 mm 8 m/s 745 mmHg 86%
    09:00 -5°C° 0.2 mm 8 m/s 745 mmHg 85%
    10:00 -5°C° 0.2 mm 8 m/s 745 mmHg 84%
    11:00 -5°C° 0.1 mm 8 m/s 744 mmHg 83%
    12:00 -4°C° 0.1 mm 9 m/s 744 mmHg 82%
    13:00 -4°C° 0.1 mm 9 m/s 744 mmHg 81%
    14:00 -4°C° 0.1 mm 8 m/s 743 mmHg 84%
    15:00 -3°C° 0.1 mm 7 m/s 742 mmHg 87%
    16:00 -3°C° 0.1 mm 6 m/s 741 mmHg 90%
    17:00 -3°C° 0.7 mm 7 m/s 740 mmHg 91%
    18:00 -2°C° 0.7 mm 7 m/s 739 mmHg 91%
    19:00 -2°C° 0.7 mm 7 m/s 738 mmHg 92%
    20:00 -2°C° 0.5 mm 7 m/s 737 mmHg 92%
    21:00 -2°C° 0.5 mm 8 m/s 736 mmHg 91%
    22:00 -2°C° 0.5 mm 8 m/s 735 mmHg 90%
    23:00 -2°C° 0.5 mm 8 m/s 734 mmHg 90%

    31 Martie, Duminică

    Timp Temperatura Precipitaţii Vânt Presiune Umiditate
    00:00 -2°C° 0.5 mm 8 m/s 733 mmHg 90%
    01:00 -2°C° 0.5 mm 8 m/s 732 mmHg 90%
    02:00 -2°C° 0.4 mm 8 m/s 731 mmHg 89%
    03:00 -2°C° 0.4 mm 8 m/s 730 mmHg 89%
    04:00 -2°C° 0.4 mm 8 m/s 730 mmHg 89%
    05:00 -4°C° 0.2 mm 9 m/s 729 mmHg 86%
    06:00 -5°C° 0.2 mm 10 m/s 729 mmHg 83%
    07:00 -6°C° 0.2 mm 11 m/s 729 mmHg 80%
    08:00 -6°C° 0.1 mm 11 m/s 728 mmHg 81%
    09:00 -5°C° 0.1 mm 10 m/s 728 mmHg 81%
    10:00 -5°C° 0.1 mm 10 m/s 728 mmHg 81%
    11:00 -5°C° 0.2 mm 10 m/s 728 mmHg 79%
    12:00 -6°C° 0.2 mm 11 m/s 727 mmHg 76%
    13:00 -4°C° 0.2 mm 11 m/s 727 mmHg 74%
    14:00 -5°C° 0.2 mm 10 m/s 727 mmHg 75%
    15:00 -5°C° 0.2 mm 9 m/s 726 mmHg 76%
    16:00 -5°C° 0.2 mm 9 m/s 726 mmHg 76%
    17:00 -6°C° 0.1 mm 8 m/s 726 mmHg 76%
    18:00 -6°C° 0.1 mm 7 m/s 726 mmHg 76%
    19:00 -7°C° 0.1 mm 7 m/s 726 mmHg 76%
    20:00 -7°C° 0.1 mm 7 m/s 726 mmHg 75%
    21:00 -6°C° 0.1 mm 6 m/s 726 mmHg 75%
    22:00 -8°C° 0.1 mm 6 m/s 727 mmHg 74%
    23:00 -8°C° 0 mm 5 m/s 727 mmHg 73%
    Arată mai mult